{"data":{"norad_id":45379,"epoch":"2026-05-25T04:27:20.418336Z","epoch_age_seconds":56043,"freshness":"FRESH","line1":"1 45379U 20019V   26145.18565299  .00075719  00000+0  50342-3 0  9998","line2":"2 45379  53.0385 111.4320 0004899  47.9625 312.1810 15.74774506342279","mean_motion":15.74774506,"eccentricity":0.0004899,"inclination_deg":53.0385,"raan_deg":111.432,"arg_perigee_deg":47.9625,"mean_anomaly_deg":312.181,"bstar":0.00050342,"rev_number":34227,"period_min":91.441663204065,"perigee_km":341.97912882338,"apogee_km":348.5667258702,"semimajor_km":6723.4099273468,"source":"CELESTRAK","updated_at":"2026-05-25T13:38:16.415036Z"}}